SCP
-0 -0 -0 0 -0 0 -0 -0 0 -0 -0 -0 -0 -0 0 0 -0 -0 -0 -0 -0 -0 -0 0 0 0 0 0 0 0 0 -0 -0 0 0 -0 -0 -0 -0 -0 -0 -0 -0 -0 0 -0 0 0 0
-0 -0 -0 0 0 -0 -0 -0 -0 -0 -0 -0 0 -0 -0 0 -0 0 -0 -0 0 -0 -0 -0 0 0 0 0 0 0 0 -0 0 0 0 -0 -0 -0 -0 -0 -0 -0 -0 -0 0 -0 0 0 0
-0 -0 -0 -0 -0 -0 -0 -0 -0 -0 -0 0 0 -0 0 -0 -0 -0 -0 0 0 -0 -0 -0 0 0 0 0 0 0 0 0 0 0 0 -0 -0 -0 -0 -0 -0 -0 -0 0 0 0 -0 -0 0
0 0 -0 -0 -0 -0 -0 0 -0 -0 0 -0 -0 -0 -0 0 -0 -0 0 0 -0 0 -0 0 0 0 0 0 0 0 0 0 0 0 0 -0 -0 -0 -0 0 -0 0 0 0 0 0 0 0 0
-0 0 -0 0 -0 -0 0 -0 -0 -0 -0 -0 -0 -0 -0 -0 0 0 0 0 -0 0 0 0 0 0 0 0 0 0 0 0 0 0 0 -0 -0 -0 0 0 0 0 0 0 0 0 0 0 0
0 0 -0 0 -0 0 0 -0 -0 -0 -0 -0 -0 -0 0 -0 0 0 0 0 0 0 0 0 0 0 0 0 0 0 0 0 0 0 0 -0 -0 0 0 0 0 0 0 0 0 0 0 0 -0
-0 0 -0 -0 0 0 0 -0 -0 -0 -0 -0 -0 -0 -0 0 0 0 0 0 -0 -0 0 0 -0 0 0 0 0 0 0 0 -0 -0 0 0 0 0 0 0 0 0 0 0 0 0 0 0 -0
0 0 0 0 -0 -0 -0 0 -0 -0 -0 -0 -1 0 -0 0 -0 0 0 -0 -0 -0 0 0 -0 -0 -0 -0 0 0 0 0 0 0 0 0 0 0 0 0 0 0 0 0 0 0 0 -0 0
0 -0 0 0 0 0 -0 0 -0 -0 -0 -0 -0 -0 0 0 0 0 -0 -0 -0 0 0 0 -0 -0 -0 -0 -0 0 -0 0 0 0 0 0 0 0 0 0 0 0 0 0 0 -0 0 0 0
0 0 0 0 -0 -0 -0 -0 -0 -0 -0 -0 -0 -0 -0 -0 -0 -0 -0 -0 -0 0 0 -0 -0 -0 -0 -0 -0 -0 -0 -0 -0 0 0 0 0 0 0 0 0 0 0 0 0 -0 0 0 0
0 0 0 -0 -0 -0 0 0 -0 -0 0 -0 -0 -0 -0 -0 -0 -0 -0 -0 -0 -0 0 0 0 0 0 -0 -0 -0 -0 -0 -0 -0 -0 0 0 0 -0 0 0 -0 0 0 0 0 0 0 0
-0 -0 0 -0 -0 -0 0 0 -0 -0 -0 -0 -0 -0 -0 -1 -1 -0 -0 -0 -0 -0 -0 -0 0 0 -0 0 0 -0 -0 -0 -0 -0 -0 0 -0 -0 0 0 0 0 0 0 0 0 0 0 0
-0 -0 -0 -0 0 0 0 0 -0 0 -0 -0 -0 -0 -0 -0 -0 -0 -0 -0 -0 -0 0 -0 0 -0 0 -0 0 -0 -0 0 -0 0 -0 -0 -0 -0 -0 0 0 -0 -0 -0 0 0 0 0 -0
-0 -0 0 -0 -0 0 0 0 0 -0 -0 -1 -1 -0 -0 -0 0 -0 -0 -0 0 -0 -0 0 -0 0 -0 0 0 -0 -0 0 -0 0 0 -0 -0 0 0 0 -0 -0 -0 0 0 0 -0 -0 0
0 -0 -0 -0 -0 0 0 0 -0 0 -0 -1 -1 -0 -0 0 0 -0 -0 -0 -0 0 0 -0 -0 0 0 0 -0 -0 0 0 -0 0 -0 -0 -0 0 -0 0 -0 0 0 0 0 0 0 0 0
0 -0 -0 0 0 -0 0 0 0 0 -0 -0 -0 -0 -0 -0 0 -0 -0 -0 -0 0 -0 -0 -0 -0 -0 0 -0 -0 -0 0 -0 -0 -0 -0 -0 -0 0 0 0 0 0 0 0 0 0 0 0
0 -0 -0 0 0 0 0 0 -0 0 0 -0 -0 -0 -0 -0 -0 -0 0 -0 -0 -0 -0 -0 -0 -0 -0 -0 0 0 -0 0 -0 -0 -0 -0 -0 -0 -0 0 0 0 0 0 0 0 0 0 0
-0 -0 0 -0 0 0 0 0 0 0 0 -0 -0 -0 -0 -0 -0 -0 -0 -0 -0 -0 -0 -0 -0 -1 -0 -0 -0 -0 -0 -0 -0 0 -0 -0 -0 -0 0 0 0 0 0 0 0 0 0 0 0
-0 -0 0 -0 0 0 0 0 0 -0 0 -0 -0 -0 -0 -0 -0 -0 -0 -0 -0 -0 -0 -0 -0 -1 -1 -0 -0 0 0 -0 -0 0 -0 -0 -0 -0 0 0 0 0 0 0 0 0 0 0 0
-0 -0 0 0 0 0 0 0 0 0 0 0 -0 -0 -0 -0 -0 -0 -0 -0 -0 -0 -0 -0 -0 -1 -1 -0 -0 0 0 -0 -0 -0 -0 -0 -0 0 0 0 0 0 0 0 0 0 0 0 0
-0 -0 -0 -0 0 0 0 0 0 -0 0 0 -0 -0 -0 -0 -0 -0 -0 -0 -0 -0 -1 -1 -1 -1 -1 -0 0 0 0 -0 -0 -0 0 -0 0 0 0 0 0 0 0 0 0 0 0 0 0
0 -0 -0 0 0 0 0 0 0 0 0 0 -0 -0 -0 -0 -0 -0 -0 -0 -0 -0 -1 -1 -0 -1 -0 -0 -0 0 0 0 -0 0 0 0 0 0 0 0 0 0 0 0 0 0 0 0 0
0 0 0 0 0 0 0 0 -0 0 -0 -0 0 -0 -0 -0 -0 -0 -0 -0 -0 -1 -1 -1 -1 -0 -0 -0 0 0 0 0 -0 0 0 0 0 0 0 0 0 0 0 0 0 0 0 0 0
-0 0 0 0 0 0 0 0 -0 0 0 0 0 0 -0 -0 -0 -0 -0 -0 -0 -0 -0 -0 -0 -0 0 0 0 0 0 0 -0 0 0 0 0 0 -0 -0 0 0 0 0 0 0 0 0 0
-0 0 0 0 0 0 0 0 0 -0 0 0 0 0 0 -0 -0 -0 -0 -0 -0 -0 -1 -1 -0 0 -0 -0 0 0 0 -0 0 0 0 -0 -0 0 -0 -0 0 0 0 0 0 0 0 0 0
0 -0 0 0 0 0 0 0 0 -0 0 -0 0 0 0 0 -0 -0 -0 -0 -1 -0 -1 -2 -2 -1 0 1 0 0 0 -0 -0 0 -0 -0 -0 -0 -0 -0 0 0 0 0 0 0 0 0 0
-0 0 -0 0 0 0 0 0 0 0 0 0 0 0 0 0 0 -0 -0 -0 -0 -0 -1 -2 -4 -3 -1 -1 0 0 0 0 -0 -0 -0 -0 -0 -0 -0 -0 -0 0 0 0 0 0 0 0 0
0 0 0 0 0 0 0 0 0 0 0 0 0 0 0 0 0 0 -0 -0 -0 -0 -0 -1 -5 -4 -3 -1 -0 0 0 0 0 0 -0 -0 -0 -0 -0 -0 -0 0 0 0 0 0 0 0 0
0 -0 0 0 0 0 0 0 -0 0 0 0 0 0 0 0 0 0 -0 0 0 0 0 -1 -4 -4 -3 -2 -1 -0 -0 -0 -0 -0 -0 -0 -0 -0 -0 -0 -0 0 0 0 0 0 0 0 0
0 0 0 0 0 0 0 0 -0 0 0 0 0 0 -0 0 -0 -0 -0 0 0 -0 -0 -1 -3 -3 -3 -3 -2 -1 -1 -0 -0 -0 -0 -0 -0 -0 -1 -1 -0 0 0 1 0 0 0 0 0
Wind_Speed_500mb
19 32 21 5 2 2 7 6 17 22 13 24 33 17 12 12 9 16 36 49 50 53 54 55 53 54 54 57 58 53 48 44 41 37 37 34 34 34 32 29 27 26 24 23 23 21 21 21 24
33 36 17 12 6 2 7 7 10 26 36 64 36 24 40 21 46 47 53 49 51 52 55 56 52 51 52 55 54 50 45 41 37 36 32 31 31 30 28 27 25 25 21 21 21 20 21 21 21
42 38 16 1 8 6 9 16 16 63 60 32 20 31 21 35 45 55 56 53 45 53 53 51 49 49 51 52 50 47 42 37 34 31 27 28 27 26 25 24 23 20 20 20 19 20 21 21 20
32 26 20 9 21 11 8 21 37 49 49 46 50 25 34 44 54 71 61 59 45 45 48 50 48 48 49 48 46 44 40 34 30 26 24 23 23 23 22 21 18 18 19 18 18 20 23 24 23
36 19 6 10 20 14 14 38 57 48 51 61 65 45 38 46 65 67 63 53 44 41 45 47 47 46 45 44 44 41 36 31 27 24 22 21 21 20 20 20 18 17 17 19 19 22 24 25 27
18 10 5 21 13 22 14 56 63 57 69 62 67 59 38 66 67 63 54 51 41 47 47 48 47 44 42 42 40 38 34 28 25 24 20 20 19 19 20 23 22 20 19 19 20 21 24 30 31
12 16 19 21 17 22 31 57 53 58 63 43 70 51 53 67 54 53 52 41 32 43 45 46 46 43 41 40 39 36 30 26 26 21 19 17 17 20 19 18 30 26 20 21 19 22 24 29 32
18 7 17 15 13 20 37 34 70 71 45 79 94 24 47 71 58 54 56 48 37 35 41 45 45 43 42 40 37 33 30 28 23 18 16 16 15 12 17 22 24 23 21 24 20 24 25 28 27
13 7 13 15 21 12 36 37 65 74 78 57 29 76 69 70 66 67 62 60 36 32 36 42 43 42 41 39 35 32 29 25 19 16 14 12 16 17 19 16 23 19 20 23 21 17 18 18 18
11 4 13 19 19 7 39 57 55 44 42 44 64 61 76 79 77 74 73 63 45 38 33 33 40 40 39 37 33 26 23 17 14 15 12 13 9 12 11 9 13 18 17 17 14 14 8 15 17
18 10 16 41 38 32 34 42 55 39 29 62 69 71 87 79 79 72 67 62 61 45 31 30 34 36 33 34 24 18 15 16 17 14 6 5 5 10 14 6 8 13 19 19 19 18 13 11 16
16 34 21 20 24 20 26 50 40 50 46 76 85 76 72 84 82 80 77 67 66 48 46 40 32 33 37 29 11 22 18 15 10 3 9 1 5 7 2 8 14 14 15 16 19 14 10 16 12
19 23 29 53 58 48 55 34 43 40 80 80 75 70 68 70 83 79 64 55 57 44 57 49 42 39 34 29 20 16 12 11 9 8 2 2 11 7 13 10 9 12 7 11 15 26 24 15 10
43 25 46 33 41 50 32 28 38 64 85 84 77 71 62 64 63 72 64 62 54 47 54 57 51 47 39 37 28 22 17 21 12 14 8 10 5 13 15 14 11 11 10 12 17 22 12 8 10
50 25 41 33 24 26 52 21 33 67 80 80 78 71 63 60 57 58 73 64 54 50 58 60 62 55 45 45 43 39 33 25 26 16 6 9 11 13 23 27 16 14 11 17 10 13 5 6 13
27 17 17 23 19 18 35 14 31 65 75 70 73 70 67 68 64 60 62 58 55 50 51 63 60 49 39 55 52 45 41 29 22 20 20 22 25 17 13 15 16 9 15 19 16 15 6 10 10
13 19 21 23 25 17 18 19 31 62 68 66 72 70 69 70 71 68 61 64 60 54 60 58 54 46 39 32 57 47 41 35 24 28 24 22 19 18 18 13 13 14 15 16 21 7 4 11 16
18 16 22 21 16 31 24 12 25 50 59 63 72 73 71 75 75 74 70 65 64 59 62 62 51 45 44 34 26 31 38 29 29 32 24 25 26 25 17 11 12 12 16 21 5 6 14 14 4
29 29 32 26 22 19 18 20 26 44 35 36 68 73 76 80 73 75 72 70 66 63 65 68 62 54 47 50 41 35 39 38 37 29 29 28 31 23 19 20 25 12 8 10 7 11 21 7 6
40 38 40 29 37 21 35 24 27 28 43 49 62 73 78 81 80 76 78 76 72 69 70 69 67 61 55 51 46 39 34 35 27 29 34 31 25 22 21 15 14 20 12 15 9 14 13 9 4
44 42 32 16 11 10 26 2 17 22 35 51 56 82 85 90 88 84 88 82 79 77 75 73 69 65 64 50 47 40 31 36 28 35 35 33 24 20 23 20 18 19 22 17 13 7 23 16 11
37 47 40 37 26 20 27 12 28 31 34 32 56 75 80 88 93 95 92 89 87 84 78 74 71 68 69 64 56 49 45 41 32 22 31 31 30 22 20 23 25 26 29 27 22 6 20 24 21
45 28 38 40 30 27 26 11 15 37 37 39 36 72 80 90 96 99 102 100 93 90 87 81 76 71 66 74 69 58 44 45 34 27 28 27 35 24 19 28 35 32 31 27 19 13 17 32 24
29 29 35 34 23 12 37 23 18 16 42 29 22 47 83 85 98 98 104 102 98 92 90 88 83 77 69 60 67 63 51 44 44 42 42 39 39 30 30 38 32 30 34 30 22 18 22 26 33
40 21 25 20 22 19 28 32 21 24 24 42 48 64 71 95 91 96 97 101 106 101 96 94 90 84 76 65 58 72 62 56 48 43 42 44 39 39 39 46 38 33 34 32 25 21 23 29 29
37 34 26 24 24 20 18 20 21 36 38 83 70 57 68 68 94 97 103 109 112 108 102 98 97 89 81 71 64 65 74 63 62 53 48 49 47 39 37 36 37 30 35 32 25 22 23 23 27
18 39 26 11 18 11 16 20 20 41 31 42 54 61 49 51 63 103 111 109 115 113 109 104 101 93 84 77 67 67 74 80 68 70 60 53 47 42 33 35 31 32 32 36 33 27 26 26 24
38 11 28 27 29 39 29 22 18 21 37 36 37 44 60 49 65 79 112 114 112 115 112 105 102 98 89 81 74 67 74 77 80 71 77 63 53 50 43 50 47 42 38 40 39 37 34 28 24
16 35 19 16 25 21 21 31 13 22 39 41 39 75 83 81 102 110 108 117 117 112 112 111 107 100 95 85 79 76 71 79 77 83 76 80 60 57 64 51 53 55 51 47 48 43 38 35 35
49 33 20 16 11 10 15 29 16 25 32 51 55 63 70 85 120 107 105 109 111 109 109 115 111 107 98 90 83 78 77 77 82 82 86 82 80 72 67 68 65 61 59 53 53 49 48 41 40
Wind_Direction_500mb
145 111 83 17 264 355 272 88 114 134 91 82 57 52 90 32 73 132 141 137 129 131 138 141 138 134 135 140 141 138 132 127 121 118 108 107 104 98 92 89 85 79 70 64 63 66 69 71 77
150 135 40 75 34 274 293 137 160 98 115 111 111 89 66 78 96 125 128 135 132 131 136 139 139 137 138 140 143 142 135 131 126 115 108 104 98 95 90 84 80 74 64 57 58 62 65 72 77
158 169 163 331 196 179 178 165 99 119 125 126 112 98 79 118 115 131 127 129 129 136 139 137 139 140 143 143 145 144 142 137 127 118 108 102 100 94 84 75 76 72 62 55 55 65 64 64 74
151 190 206 225 195 214 193 123 131 122 125 120 113 84 113 119 131 130 129 137 141 136 143 142 144 145 145 146 147 148 145 135 129 124 113 103 96 87 75 68 69 60 55 53 50 62 72 65 66
164 245 266 199 206 151 138 99 121 103 100 102 110 118 108 128 125 134 139 150 151 149 147 147 151 150 147 149 152 148 143 138 135 126 117 109 95 79 64 55 55 52 54 54 53 54 64 70 69
206 256 340 333 127 134 106 111 109 110 112 113 113 115 121 135 138 146 145 150 150 152 150 150 150 151 151 152 151 150 149 144 137 130 120 100 86 71 61 59 48 41 45 48 52 54 60 66 77
278 357 306 306 297 101 125 130 130 128 129 126 131 119 139 146 143 144 147 151 155 160 156 155 154 154 155 156 154 153 152 148 140 133 117 104 87 73 63 68 37 33 39 47 67 62 67 70 76
111 176 282 275 179 104 139 146 140 142 129 138 134 142 158 160 156 153 147 153 158 153 165 163 160 161 158 158 156 156 156 153 146 136 130 118 91 89 63 53 42 44 53 53 67 78 83 75 69
118 53 297 286 90 142 135 107 123 127 131 148 162 153 153 154 147 150 156 155 164 161 169 165 166 164 160 160 159 160 162 159 144 144 128 105 76 69 40 46 44 39 50 50 79 77 80 78 58
101 182 256 283 312 214 133 126 138 133 130 128 142 154 156 158 160 157 159 159 165 159 161 162 166 167 168 167 164 165 170 165 151 153 114 82 49 54 28 36 18 3 30 33 32 15 19 51 42
158 241 246 269 259 234 151 130 135 138 142 150 149 155 161 158 165 158 162 163 164 172 165 168 163 167 171 172 171 177 149 160 131 134 134 236 39 61 48 310 5 24 13 360 4 17 47 19 34
148 225 220 243 261 207 141 147 146 162 150 151 148 153 158 165 170 160 168 169 173 178 177 176 171 161 165 161 149 162 145 127 140 127 78 71 207 147 232 302 356 356 352 346 340 337 2 18 0
202 209 226 254 257 257 143 145 163 165 140 146 150 157 166 164 168 171 179 176 177 181 179 183 177 168 183 193 174 183 192 182 200 207 57 62 158 185 216 276 287 295 302 315 315 334 341 359 38
213 209 223 274 229 171 138 140 123 138 144 145 152 164 174 176 178 177 177 176 180 187 188 187 189 179 185 179 194 200 223 191 207 197 227 270 229 245 239 243 264 271 294 289 308 338 339 42 18
281 264 224 255 223 161 122 92 150 148 146 149 155 166 179 184 186 181 180 180 177 176 187 197 192 189 201 193 200 200 184 179 197 202 209 209 233 279 249 254 276 267 287 305 317 324 322 331 326
280 285 282 221 178 195 117 181 134 150 148 154 158 168 183 189 190 190 186 187 184 179 194 189 189 200 214 208 204 202 199 192 209 220 233 267 283 290 287 273 242 254 287 288 303 298 205 309 284
283 258 269 265 178 158 110 177 193 165 155 158 163 173 186 193 194 193 195 191 188 181 192 192 204 216 213 202 213 214 207 199 208 237 221 231 272 265 301 290 227 295 245 285 294 259 285 288 296
243 241 255 248 195 158 121 181 164 172 164 166 167 176 186 194 198 194 193 196 195 196 195 204 204 217 219 222 215 207 193 208 221 228 226 245 261 259 284 263 255 280 298 280 255 232 320 322 29
245 248 252 253 199 154 143 161 190 183 190 191 173 178 183 192 199 197 195 199 199 202 202 206 208 212 219 216 205 197 196 212 220 219 222 238 259 267 254 283 241 249 275 243 242 291 307 133 44
243 252 261 293 150 135 166 182 222 214 204 195 184 180 183 188 194 199 195 196 202 205 206 208 211 208 216 220 214 212 211 225 226 221 224 235 255 276 253 258 214 205 214 218 241 309 167 161 119
230 242 255 232 17 331 173 358 230 229 186 201 202 184 185 188 193 196 196 198 202 205 209 211 210 207 212 214 210 213 228 213 226 221 218 229 246 257 249 227 219 202 206 218 241 284 164 138 112
224 234 247 256 196 204 171 208 229 211 211 208 204 186 188 190 194 197 197 198 202 207 210 214 213 212 212 215 215 223 220 211 211 222 218 229 235 232 215 214 240 210 209 230 238 211 173 165 152
234 230 240 250 256 144 247 248 208 200 213 214 193 189 192 191 192 197 200 201 202 205 209 214 215 216 219 217 222 220 216 213 200 227 228 236 225 217 205 215 212 218 231 221 233 198 171 174 167
238 233 248 253 251 193 209 194 243 184 191 187 188 199 193 193 196 199 204 203 202 205 209 212 214 216 220 221 218 215 207 206 212 214 228 225 206 224 226 223 227 218 217 219 225 230 212 196 190
221 220 235 245 241 240 182 193 210 212 187 176 188 205 207 195 194 195 197 198 202 203 207 211 213 214 217 221 216 212 207 202 205 218 221 218 221 233 235 227 226 208 216 216 221 218 208 200 204
213 216 223 218 228 246 227 202 218 205 212 195 188 207 202 199 195 195 198 204 204 203 206 211 212 214 215 218 217 214 211 209 207 211 219 228 235 235 221 227 225 214 223 228 221 219 211 204 208
228 216 228 253 254 257 233 254 258 213 198 189 184 174 202 241 206 197 199 205 205 203 206 210 214 213 215 217 217 215 212 214 212 208 218 226 230 240 226 237 238 229 227 229 224 216 217 210 202
213 194 210 226 229 244 251 245 237 190 180 173 182 186 201 219 209 205 200 202 209 209 206 208 217 216 215 216 219 220 216 215 217 216 216 218 221 225 227 238 240 242 241 232 227 219 210 217 218
216 222 228 201 226 234 240 250 246 188 179 175 186 197 197 208 192 208 200 200 207 208 205 206 212 215 215 216 218 223 223 220 219 221 222 220 219 216 224 234 236 240 246 241 232 219 217 218 221
215 208 198 220 260 251 236 254 272 223 198 185 189 199 208 196 205 208 196 198 199 205 205 206 210 213 217 218 219 224 227 226 222 222 224 224 223 225 227 229 235 239 242 244 238 225 217 220 221
Wind_Speed_850mb
19 32 21 5 2 2 7 6 17 22 13 24 33 17 12 12 9 16 36 49 50 53 54 55 53 54 54 57 58 53 48 44 41 37 37 34 34 34 32 29 27 26 24 23 23 21 21 21 24
33 36 17 12 6 2 7 7 10 26 36 64 36 24 40 21 46 47 53 49 51 52 55 56 52 51 52 55 54 50 45 41 37 36 32 31 31 30 28 27 25 25 21 21 21 20 21 21 21
42 38 16 1 8 6 9 16 16 63 60 32 20 31 21 35 45 55 56 53 45 53 53 51 49 49 51 52 50 47 42 37 34 31 27 28 27 26 25 24 23 20 20 20 19 20 21 21 20
32 26 20 9 21 11 8 21 37 49 49 46 50 25 34 44 54 71 61 59 45 45 48 50 48 48 49 48 46 44 40 34 30 26 24 23 23 23 22 21 18 18 19 18 18 20 23 24 23
36 19 6 10 20 14 14 38 57 48 51 61 65 45 38 46 65 67 63 53 44 41 45 47 47 46 45 44 44 41 36 31 27 24 22 21 21 20 20 20 18 17 17 19 19 22 24 25 27
18 10 5 21 13 22 14 56 63 57 69 62 67 59 38 66 67 63 54 51 41 47 47 48 47 44 42 42 40 38 34 28 25 24 20 20 19 19 20 23 22 20 19 19 20 21 24 30 31
12 16 19 21 17 22 31 57 53 58 63 43 70 51 53 67 54 53 52 41 32 43 45 46 46 43 41 40 39 36 30 26 26 21 19 17 17 20 19 18 30 26 20 21 19 22 24 29 32
18 7 17 15 13 20 37 34 70 71 45 79 94 24 47 71 58 54 56 48 37 35 41 45 45 43 42 40 37 33 30 28 23 18 16 16 15 12 17 22 24 23 21 24 20 24 25 28 27
13 7 13 15 21 12 36 37 65 74 78 57 29 76 69 70 66 67 62 60 36 32 36 42 43 42 41 39 35 32 29 25 19 16 14 12 16 17 19 16 23 19 20 23 21 17 18 18 18
11 4 13 19 19 7 39 57 55 44 42 44 64 61 76 79 77 74 73 63 45 38 33 33 40 40 39 37 33 26 23 17 14 15 12 13 9 12 11 9 13 18 17 17 14 14 8 15 17
18 10 16 41 38 32 34 42 55 39 29 62 69 71 87 79 79 72 67 62 61 45 31 30 34 36 33 34 24 18 15 16 17 14 6 5 5 10 14 6 8 13 19 19 19 18 13 11 16
16 34 21 20 24 20 26 50 40 50 46 76 85 76 72 84 82 80 77 67 66 48 46 40 32 33 37 29 11 22 18 15 10 3 9 1 5 7 2 8 14 14 15 16 19 14 10 16 12
19 23 29 53 58 48 55 34 43 40 80 80 75 70 68 70 83 79 64 55 57 44 57 49 42 39 34 29 20 16 12 11 9 8 2 2 11 7 13 10 9 12 7 11 15 26 24 15 10
43 25 46 33 41 50 32 28 38 64 85 84 77 71 62 64 63 72 64 62 54 47 54 57 51 47 39 37 28 22 17 21 12 14 8 10 5 13 15 14 11 11 10 12 17 22 12 8 10
50 25 41 33 24 26 52 21 33 67 80 80 78 71 63 60 57 58 73 64 54 50 58 60 62 55 45 45 43 39 33 25 26 16 6 9 11 13 23 27 16 14 11 17 10 13 5 6 13
27 17 17 23 19 18 35 14 31 65 75 70 73 70 67 68 64 60 62 58 55 50 51 63 60 49 39 55 52 45 41 29 22 20 20 22 25 17 13 15 16 9 15 19 16 15 6 10 10
13 19 21 23 25 17 18 19 31 62 68 66 72 70 69 70 71 68 61 64 60 54 60 58 54 46 39 32 57 47 41 35 24 28 24 22 19 18 18 13 13 14 15 16 21 7 4 11 16
18 16 22 21 16 31 24 12 25 50 59 63 72 73 71 75 75 74 70 65 64 59 62 62 51 45 44 34 26 31 38 29 29 32 24 25 26 25 17 11 12 12 16 21 5 6 14 14 4
29 29 32 26 22 19 18 20 26 44 35 36 68 73 76 80 73 75 72 70 66 63 65 68 62 54 47 50 41 35 39 38 37 29 29 28 31 23 19 20 25 12 8 10 7 11 21 7 6
40 38 40 29 37 21 35 24 27 28 43 49 62 73 78 81 80 76 78 76 72 69 70 69 67 61 55 51 46 39 34 35 27 29 34 31 25 22 21 15 14 20 12 15 9 14 13 9 4
44 42 32 16 11 10 26 2 17 22 35 51 56 82 85 90 88 84 88 82 79 77 75 73 69 65 64 50 47 40 31 36 28 35 35 33 24 20 23 20 18 19 22 17 13 7 23 16 11
37 47 40 37 26 20 27 12 28 31 34 32 56 75 80 88 93 95 92 89 87 84 78 74 71 68 69 64 56 49 45 41 32 22 31 31 30 22 20 23 25 26 29 27 22 6 20 24 21
45 28 38 40 30 27 26 11 15 37 37 39 36 72 80 90 96 99 102 100 93 90 87 81 76 71 66 74 69 58 44 45 34 27 28 27 35 24 19 28 35 32 31 27 19 13 17 32 24
29 29 35 34 23 12 37 23 18 16 42 29 22 47 83 85 98 98 104 102 98 92 90 88 83 77 69 60 67 63 51 44 44 42 42 39 39 30 30 38 32 30 34 30 22 18 22 26 33
40 21 25 20 22 19 28 32 21 24 24 42 48 64 71 95 91 96 97 101 106 101 96 94 90 84 76 65 58 72 62 56 48 43 42 44 39 39 39 46 38 33 34 32 25 21 23 29 29
37 34 26 24 24 20 18 20 21 36 38 83 70 57 68 68 94 97 103 109 112 108 102 98 97 89 81 71 64 65 74 63 62 53 48 49 47 39 37 36 37 30 35 32 25 22 23 23 27
18 39 26 11 18 11 16 20 20 41 31 42 54 61 49 51 63 103 111 109 115 113 109 104 101 93 84 77 67 67 74 80 68 70 60 53 47 42 33 35 31 32 32 36 33 27 26 26 24
38 11 28 27 29 39 29 22 18 21 37 36 37 44 60 49 65 79 112 114 112 115 112 105 102 98 89 81 74 67 74 77 80 71 77 63 53 50 43 50 47 42 38 40 39 37 34 28 24
16 35 19 16 25 21 21 31 13 22 39 41 39 75 83 81 102 110 108 117 117 112 112 111 107 100 95 85 79 76 71 79 77 83 76 80 60 57 64 51 53 55 51 47 48 43 38 35 35
49 33 20 16 11 10 15 29 16 25 32 51 55 63 70 85 120 107 105 109 111 109 109 115 111 107 98 90 83 78 77 77 82 82 86 82 80 72 67 68 65 61 59 53 53 49 48 41 40
Wind_Direction_850mb
145 111 83 17 264 355 272 88 114 134 91 82 57 52 90 32 73 132 141 137 129 131 138 141 138 134 135 140 141 138 132 127 121 118 108 107 104 98 92 89 85 79 70 64 63 66 69 71 77
150 135 40 75 34 274 293 137 160 98 115 111 111 89 66 78 96 125 128 135 132 131 136 139 139 137 138 140 143 142 135 131 126 115 108 104 98 95 90 84 80 74 64 57 58 62 65 72 77
158 169 163 331 196 179 178 165 99 119 125 126 112 98 79 118 115 131 127 129 129 136 139 137 139 140 143 143 145 144 142 137 127 118 108 102 100 94 84 75 76 72 62 55 55 65 64 64 74
151 190 206 225 195 214 193 123 131 122 125 120 113 84 113 119 131 130 129 137 141 136 143 142 144 145 145 146 147 148 145 135 129 124 113 103 96 87 75 68 69 60 55 53 50 62 72 65 66
164 245 266 199 206 151 138 99 121 103 100 102 110 118 108 128 125 134 139 150 151 149 147 147 151 150 147 149 152 148 143 138 135 126 117 109 95 79 64 55 55 52 54 54 53 54 64 70 69
206 256 340 333 127 134 106 111 109 110 112 113 113 115 121 135 138 146 145 150 150 152 150 150 150 151 151 152 151 150 149 144 137 130 120 100 86 71 61 59 48 41 45 48 52 54 60 66 77
278 357 306 306 297 101 125 130 130 128 129 126 131 119 139 146 143 144 147 151 155 160 156 155 154 154 155 156 154 153 152 148 140 133 117 104 87 73 63 68 37 33 39 47 67 62 67 70 76
111 176 282 275 179 104 139 146 140 142 129 138 134 142 158 160 156 153 147 153 158 153 165 163 160 161 158 158 156 156 156 153 146 136 130 118 91 89 63 53 42 44 53 53 67 78 83 75 69
118 53 297 286 90 142 135 107 123 127 131 148 162 153 153 154 147 150 156 155 164 161 169 165 166 164 160 160 159 160 162 159 144 144 128 105 76 69 40 46 44 39 50 50 79 77 80 78 58
101 182 256 283 312 214 133 126 138 133 130 128 142 154 156 158 160 157 159 159 165 159 161 162 166 167 168 167 164 165 170 165 151 153 114 82 49 54 28 36 18 3 30 33 32 15 19 51 42
158 241 246 269 259 234 151 130 135 138 142 150 149 155 161 158 165 158 162 163 164 172 165 168 163 167 171 172 171 177 149 160 131 134 134 236 39 61 48 310 5 24 13 360 4 17 47 19 34
148 225 220 243 261 207 141 147 146 162 150 151 148 153 158 165 170 160 168 169 173 178 177 176 171 161 165 161 149 162 145 127 140 127 78 71 207 147 232 302 356 356 352 346 340 337 2 18 0
202 209 226 254 257 257 143 145 163 165 140 146 150 157 166 164 168 171 179 176 177 181 179 183 177 168 183 193 174 183 192 182 200 207 57 62 158 185 216 276 287 295 302 315 315 334 341 359 38
213 209 223 274 229 171 138 140 123 138 144 145 152 164 174 176 178 177 177 176 180 187 188 187 189 179 185 179 194 200 223 191 207 197 227 270 229 245 239 243 264 271 294 289 308 338 339 42 18
281 264 224 255 223 161 122 92 150 148 146 149 155 166 179 184 186 181 180 180 177 176 187 197 192 189 201 193 200 200 184 179 197 202 209 209 233 279 249 254 276 267 287 305 317 324 322 331 326
280 285 282 221 178 195 117 181 134 150 148 154 158 168 183 189 190 190 186 187 184 179 194 189 189 200 214 208 204 202 199 192 209 220 233 267 283 290 287 273 242 254 287 288 303 298 205 309 284
283 258 269 265 178 158 110 177 193 165 155 158 163 173 186 193 194 193 195 191 188 181 192 192 204 216 213 202 213 214 207 199 208 237 221 231 272 265 301 290 227 295 245 285 294 259 285 288 296
243 241 255 248 195 158 121 181 164 172 164 166 167 176 186 194 198 194 193 196 195 196 195 204 204 217 219 222 215 207 193 208 221 228 226 245 261 259 284 263 255 280 298 280 255 232 320 322 29
245 248 252 253 199 154 143 161 190 183 190 191 173 178 183 192 199 197 195 199 199 202 202 206 208 212 219 216 205 197 196 212 220 219 222 238 259 267 254 283 241 249 275 243 242 291 307 133 44
243 252 261 293 150 135 166 182 222 214 204 195 184 180 183 188 194 199 195 196 202 205 206 208 211 208 216 220 214 212 211 225 226 221 224 235 255 276 253 258 214 205 214 218 241 309 167 161 119
230 242 255 232 17 331 173 358 230 229 186 201 202 184 185 188 193 196 196 198 202 205 209 211 210 207 212 214 210 213 228 213 226 221 218 229 246 257 249 227 219 202 206 218 241 284 164 138 112
224 234 247 256 196 204 171 208 229 211 211 208 204 186 188 190 194 197 197 198 202 207 210 214 213 212 212 215 215 223 220 211 211 222 218 229 235 232 215 214 240 210 209 230 238 211 173 165 152
234 230 240 250 256 144 247 248 208 200 213 214 193 189 192 191 192 197 200 201 202 205 209 214 215 216 219 217 222 220 216 213 200 227 228 236 225 217 205 215 212 218 231 221 233 198 171 174 167
238 233 248 253 251 193 209 194 243 184 191 187 188 199 193 193 196 199 204 203 202 205 209 212 214 216 220 221 218 215 207 206 212 214 228 225 206 224 226 223 227 218 217 219 225 230 212 196 190
221 220 235 245 241 240 182 193 210 212 187 176 188 205 207 195 194 195 197 198 202 203 207 211 213 214 217 221 216 212 207 202 205 218 221 218 221 233 235 227 226 208 216 216 221 218 208 200 204
213 216 223 218 228 246 227 202 218 205 212 195 188 207 202 199 195 195 198 204 204 203 206 211 212 214 215 218 217 214 211 209 207 211 219 228 235 235 221 227 225 214 223 228 221 219 211 204 208
228 216 228 253 254 257 233 254 258 213 198 189 184 174 202 241 206 197 199 205 205 203 206 210 214 213 215 217 217 215 212 214 212 208 218 226 230 240 226 237 238 229 227 229 224 216 217 210 202
213 194 210 226 229 244 251 245 237 190 180 173 182 186 201 219 209 205 200 202 209 209 206 208 217 216 215 216 219 220 216 215 217 216 216 218 221 225 227 238 240 242 241 232 227 219 210 217 218
216 222 228 201 226 234 240 250 246 188 179 175 186 197 197 208 192 208 200 200 207 208 205 206 212 215 215 216 218 223 223 220 219 221 222 220 219 216 224 234 236 240 246 241 232 219 217 218 221
215 208 198 220 260 251 236 254 272 223 198 185 189 199 208 196 205 208 196 198 199 205 205 206 210 213 217 218 219 224 227 226 222 222 224 224 223 225 227 229 235 239 242 244 238 225 217 220 221